Погода Приморско-Ахтарск

Погода Приморско-Ахтарск : погода сейчас, прогноз погоды и архив. Всё, что Вы хотите узнать о погоде Приморско-Ахтарск!

Хотите узнать прогноз погоды Приморско-Ахтарск? Тогда Вам сюда: Погода Приморско-Ахтарск

Поиск расширенной информации на нашем сайте:

Другие новости

Новости СМИ2

Главная страница сайта

Новости сайта

02.10.2013

Напоминаем, что на нашем новом сайте вы можете получить высокодетализированные прогнозы погоды по пунктам России, СНГ и мира (включающие важные для авиации метеовеличины, такие как направление и скорость ветра, видимость, явления погоды, количество и форма облачности, нижняя и верхняя граница облачности), а также ознакомиться с разнообразными материалами по авиационной метеорологии и подборкой полезных ссылок на эту тему.

Сайт Метеоцентр.Азия посвящён разработке технологий оптимизации авиаметеорологического обслуживания, включая проектирование и перспективное создание нескольких автоматизированных авиаметеорологических систем:
- система выпуска высокодетальных прогностических карт явлений погоды для нижнего воздушного пространства по России и ближнему зарубежью;
- система верификации прогнозов TAF (выпускаемых синоптиками официальных АМСГ РФ и ближнего зарубежья) и AUTOTAF (выпускаемых сайтом Метеоцентр.Азия) - выявление ошибок, онлайн-сопоставление с фактической погодой METAR, автоматическое внесение коррективов в прогнозы при резком отклонении фактической погоды от прогноза, подсчёт оправдываемости прогнозов по элементам и в целом;
- система обработки, анализа и отображения авиаметеорологической информации для применения провайдерами метеорологической информации.

Рекомендуем: Увеличение продаж цена: как правильно применять вилку цен для увеличения продаж.

Погода Приморско-Ахтарск - сегодня

Время (UTC), дата Ветер
(°,м/с) 
Видим.   Явления Облачность Т
(°С)
Тd
(°С)
f(%) Тe
(°С)
Pmin
(гПа)
dP
(гПа)
Po
(мм)
O2
(г/м3)
Тmin Tmax R s Состояние
почвы
09 25.06.17 340 (С) 10 км    1/1 600 м 
[Cu hum]
+25.2 +14.2 50 +32  1014.5  0.8  761  278           
12 25.06.17 240 (ЮЗ) 10 км    8/0 средняя 
[Ac trans]
+28.2 +13 39 +33  1014.8  0.3  761  275           
15 25.06.17 220 (ЮЗ) 10 км    ясно 
+27.2 +15.4 48 +36  1014.5  -0.3  761  276    +28.7       
18 25.06.17 230 (ЮЗ) 10 км    ясно 
+22.9 +18.6 77 +38  1015.2  0.7  761  279           
21 25.06.17 230 (ЮЗ) 10 км    ясно 
+21.9 +19.1 84 +38  1015.8  0.7  762  280           
00 26.06.17 220 (ЮЗ) 4000 м  дымка  3/0 средняя 
[Ac trans]
+21.4 +19.7 90 +39  1015.4  -0.5  761  280           
03 26.06.17 220 (ЮЗ) 4000 м  дымка  ясно 
+21.4 +20.1 92 +40  1015.2  -0.2  761  279  +20.8        сухая 
06 26.06.17 280 (З) 10 км    ясно 
+24.9 +19.6 72 +42  1015.8  0.6  761  277           
09 26.06.17 330 (СЗ) 10 км    3/3 600 м 
[Cu hum]
+26.8 +19.1 63 +43  1015.4  -0.3  761  275           
12 26.06.17 330 (СЗ) 10 км    3/3 600 м 
[Cu hum]
+27.8 +18.9 58 +44  1014.6  -0.8  761  274           
15 26.06.17 340 (С) 10 км    ясно 
+27.3 +18.5 59 +42  1013.4  -1.2  760  274    +28.2       
18 26.06.17 360 (С) 10 км    ясно 
+25.3 +17 60 +37  1012.8  -0.6  759  276           
21 26.06.17 060 (СВ) 10 км    ясно 
+22.6 +17.2 72 +35  1012.2  -0.6  759  279           
00 27.06.17 070 (В) 10 км    ясно 
+21.4 +18.3 83 +36  1012.2  759  279           
03 27.06.17 070 (В) 10 км    ясно 
+22 +18.4 80 +37  1012  -0.1  759  279  +21.2        сухая 
06 27.06.17 070 (В) 10 км    4/0 средняя, верхняя 
[Ac trans|Ci fib]
+28.6 +15.5 45 +38  1011.4  -0.6  758  273           
09 27.06.17 060 (СВ) 10 км    3/0 верхняя 
[Ci fib]
+31.1 +15.5 39 +40  1011.1  -0.3  758  271           
12 27.06.17 020 (С) 10 км    10/0 средняя, верхняя 
[Ac trans|Ci fib]
+32.6 +12.2 29 +37  1010.2  -0.8  757  270           
15 27.06.17 340 (С) 10 км    10/0 верхняя 
[Ci fib]
+29.6 +18.5 51 +45  1009.9  -0.4  757  271    +32.9       
18 27.06.17 030 (СВ) 10 км    8/0 верхняя 
[Ci fib]
+26.6 +19.3 64 +43  1010.3  0.4  757  274           
21 27.06.17 030 (СВ) 10 км    6/0 верхняя 
[Ci fib]
+24.9 +18.8 69 +41  1010.4  0.1  757  275           
00 28.06.17 120 (ЮВ) 10 км    ясно 
+22.6 +18.3 77 +37  1009.9  -0.5  757  278           
03 28.06.17 120 (ЮВ) 10 км    3/0 верхняя 
[Ci fib]
+22.3 +17.2 73 +35  1010.5  0.6  758  278  +21.6        сухая 
06 28.06.17 130 (ЮВ) 10 км    6/6 600 м 
[Sc]
+28.4 +18.5 55 +43  1011  0.6  758  272           
09 28.06.17 тихо ()   10 км    ясно 
+31.4 +20.3 52 +50  1010.7  -0.3  758  269           
Время (UTC), дата Ветер
(°,м/с) 
Видим.   Явления Облачность Т
(°С)
Тd
(°С)
f(%) Тe
(°С)
Pmin
(гПа)
dP
(гПа)
Po
(мм)
O2
(г/м3)
Тmin Tmax R s Состояние
почвы

Для получения пояснительной информации подведите курсор к названию столбца.

ПОГОДА Приморско-Ахтарск - архив

Всё, что Вы хотите узнать о погоде Приморско-Ахтарск - удобно и подробно!

Выберите нужную дату (начиная с 1 января 2015* года) и нажмите кнопку "Найти".
Будут отображены архивные сводки погоды по пункту Приморско-Ахтарск, начиная с указанной даты.


Отображать данные в формате CSV (для использования в таблицах Excel)


Внимание! Наш архив погоды предназначен исключительно для личного некоммерческого использования в познавательных целях. Если Вам необходимы официальные справки о состоянии погоды (для производственных, юридических, коммерческих и т.п. целей), обращайтесь в органы Росгидромета.

*Примечание: данная дата относится к архиву по метеостанциям СССР (Россия, СНГ, Балтия).
Архив по метеостанциям Зарубежной Европы и Азии (кроме Китая) хранится 10 дней, по другим регионам земного шара (Китай, Африка, Америка, Австралия, Океания) - 1 день.

Приморско-Ахтарск - район местоположения метеостанции


Название, широта, долгота, высота метеостанции:
Приморско-Ахтарск 46°ш. 38.2°д. 5 м над ур. моря [Российская Федерация]

Дополнительная информация

В oтличие oт бoльшинства пoгoдных сайтoв мы публикуем пoдрoбную метеoинфoрмацию в детальнoм прoфессиoнальнoм фoрмате.

Характеристики температуры и влажнoсти вoздуха измеряются на высoте 2 м в тени вдали oт зданий и деревьев.
Скoрoсть ветра измеряется на высoте 10 м (на урoвне рoста челoвека скoрoсть ветра ниже в 1.5-2 раза). Если метеoстанция нахoдится в гoрoде или в лесу, тo скoрoсть ветра занижена на 2-4 м/с пo сравнению с oткрытым местoм. Скoрoсть ветра над акватoриями крупных рек и oзёр, а также на вершинах хoлмoв на 2-5 м/с выше, чем в oбычных услoвиях.
Атмoсфернoе давление в разных тoчках местнoсти мoжет значительнo oтличаться oт давления на метеoстанции, в зависимoсти oт услoвий рельефа (при пoдъёме на 10 м давление пoнижается примернo на 1 мм рт.ст.).